Location: Haliburton Scout Reserve
(45.0900°N, 78.3200°W)
Time: 16:23:50
(UTC-04:00)

JY1SAT - Pass Details

Date: 25 June 2024
Orbit: 536 x 549 km, 97.5° (Epoch: 11 July)

Event Time Altitude Azimuth Distance (km) Brightness Sun altitude
Exits shadow 23:11:50 - 216° (SW) 2,173 ? -15.9°
Reaches altitude 10° 23:13:01 10° 227° (SW) 1,819 ? -16.0°
Maximum altitude 23:15:37 17° 268° (W) 1,440 ? -16.3°
Drops below altitude 10° 23:18:13 10° 310° (NW) 1,833 ? -16.5°
Sets 23:21:01 0° 331° (NNW) 2,735 ? -16.7°
